Portland, OR

11:24 PM PDT on April 27, 2017 (GMT -0700)
Portland International

Weather History for KPDX - June, 2013

Change the Weather History Date:

Monday, June 24, 2013

  Actual Average Record
Temperature  
Mean Temperature 63 °F 65 °F  
Max Temperature 69 °F 75 °F 96 °F (1992)
Min Temperature 57 °F 55 °F 46 °F (1971)
Degree Days  
Heating Degree Days 2 2  
Month to date heating degree days 48 80  
Since 1 June heating degree days 48 80  
Since 1 July heating degree days 3987 4267  
Cooling Degree Days 0 2  
Month to date cooling degree days 20 32  
Year to date cooling degree days 35 49  
Since 1 June cooling degree days 20 32  
Growing Degree Days 13 (Base 50)    
Moisture  
Dew Point 54 °F    
Average Humidity 71    
Maximum Humidity 90    
Minimum Humidity 52    
Precipitation  
Precipitation 0.17 in 0.04 in 0.82 in (1971)
Month to date precipitation 1.11 1.49  
Year to date precipitation 14.26 18.91  
Sea Level Pressure  
Sea Level Pressure 29.70 in    
Wind  
Wind Speed 9 mph (South)    
Max Wind Speed 20 mph    
Max Gust Speed 24 mph    
Visibility 10 miles    
Events Rain    
T = Trace of Precipitation, MM = Missing Value Source: NWS Daily Summary

Daily Weather History Graph

Daily Weather History Graph

Search for Another Location

Airport or City:

Trip Planner

Search our weather history database for the weather conditions in past years. The results will help you decide how hot, cold, wet, or windy it might be!

Date:

Astronomy

Jun. 24, 2013 Rise Set
Actual Time 5:22 AM PDT 9:03 PM PDT
Civil Twilight 4:44 AM PDT 9:41 PM PDT
Nautical Twilight 3:53 AM PDT 10:32 PM PDT
Astronomical Twilight 2:43 AM PDT 11:42 PM PDT
Moon 10:02 PM PDT (6/24) 7:02 AM PDT (6/24)
Length of Visible Light 16h 57m
Length of Day
15h 41m
Full, 97% of the Moon is Illuminated
Jun 24
Full
Jun 29
Last Quarter
Jul 8
New
Jul 15
First Quarter
Jul 22
Full

Hourly Weather History & Observations

Time (PDT) Temp. Dew Point Humidity Pressure Visibility Wind Dir Wind Speed Gust Speed Precip Events Conditions
12:53 AM 62.1 °F 61.0 °F 96% 29.64 in 4.0 mi ESE 5.8 mph - 0.01 in Rain Light Rain
1:08 AM 62.6 °F 60.8 °F 94% 29.64 in 3.0 mi SE 6.9 mph - 0.12 in Rain Heavy Rain
1:53 AM 63.0 °F 60.1 °F 90% 29.65 in 10.0 mi SSW 15.0 mph - 0.18 in   Overcast
2:29 AM 62.6 °F 59.0 °F 88% 29.66 in 10.0 mi SSW 15.0 mph 21.9 mph N/A   Mostly Cloudy
2:53 AM 61.0 °F 57.0 °F 87% 29.67 in 10.0 mi SSW 10.4 mph - N/A   Overcast
3:53 AM 59.0 °F 55.0 °F 87% 29.69 in 10.0 mi South 9.2 mph - N/A   Overcast
4:53 AM 57.9 °F 54.0 °F 87% 29.70 in 10.0 mi South 10.4 mph - N/A   Overcast
5:53 AM 57.0 °F 54.0 °F 89% 29.70 in 10.0 mi South 8.1 mph - N/A   Overcast
6:53 AM 57.9 °F 53.1 °F 84% 29.71 in 10.0 mi South 8.1 mph - N/A   Overcast
7:53 AM 59.0 °F 53.1 °F 81% 29.72 in 10.0 mi South 5.8 mph - N/A   Overcast
8:53 AM 60.1 °F 52.0 °F 75% 29.73 in 10.0 mi South 6.9 mph - N/A   Overcast
9:53 AM 60.1 °F 52.0 °F 75% 29.72 in 10.0 mi South 8.1 mph - 0.00 in   Overcast
10:53 AM 60.1 °F 53.1 °F 78% 29.72 in 10.0 mi SSW 6.9 mph - 0.00 in Rain Light Rain
11:53 AM 61.0 °F 53.1 °F 75% 29.72 in 10.0 mi South 6.9 mph - 0.00 in   Overcast
12:53 PM 63.0 °F 52.0 °F 67% 29.71 in 10.0 mi SSW 9.2 mph - N/A   Overcast
1:12 PM 64.4 °F 51.8 °F 64% 29.71 in 10.0 mi SSW 3.5 mph - N/A   Overcast
1:53 PM 64.9 °F 51.1 °F 61% 29.70 in 10.0 mi SW 4.6 mph - 0.00 in   Mostly Cloudy
2:53 PM 68.0 °F 51.1 °F 55% 29.70 in 10.0 mi SSW 10.4 mph - N/A   Mostly Cloudy
3:53 PM 66.0 °F 48.9 °F 54% 29.70 in 10.0 mi SSW 12.7 mph - N/A   Mostly Cloudy
4:53 PM 68.0 °F 51.1 °F 55% 29.70 in 10.0 mi SW 9.2 mph 16.1 mph N/A   Overcast
5:53 PM 64.9 °F 51.1 °F 61% 29.71 in 10.0 mi SSW 12.7 mph - N/A   Overcast
6:53 PM 64.9 °F 51.1 °F 61% 29.71 in 10.0 mi SW 4.6 mph - 0.00 in   Overcast
7:53 PM 64.0 °F 51.1 °F 63% 29.71 in 10.0 mi SSW 5.8 mph - N/A   Overcast
8:53 PM 63.0 °F 52.0 °F 67% 29.70 in 10.0 mi SSE 4.6 mph - N/A   Overcast
9:53 PM 61.0 °F 53.1 °F 75% 29.71 in 10.0 mi SE 8.1 mph - 0.00 in Rain Light Rain
10:53 PM 60.1 °F 55.9 °F 86% 29.71 in 10.0 mi East 4.6 mph - 0.01 in Rain Light Rain
11:53 PM 59.0 °F 55.9 °F 90% 29.70 in 10.0 mi East 5.8 mph - 0.02 in   Overcast